Theta_e
290 289 288 288 287 287 285 285 286 286 287 286 286 286 286 286 287 286 285 285 286 286 286 286 285 285 286 286 286 286 286 286 286 286 286 286 287 291 298 302 305 308 310 312 316 317 318 319 320 320 321 321 321 321 321 321 322 322 322 321 322 323 323 323 323 323 324 324 325 324 325 324 324 323 324 324 325 326 327 328 329 330 331 332 333
290 288 288 287 286 286 286 285 285 286 286 286 286 285 285 285 285 285 285 285 286 288 286 285 285 285 286 286 286 286 285 286 286 286 286 286 287 289 295 299 303 306 308 310 313 315 316 318 318 319 319 319 319 320 320 321 321 321 321 319 321 322 322 323 322 322 322 322 322 322 322 322 323 323 323 323 323 324 325 326 327 328 329 329 330
289 288 287 287 286 286 285 284 284 285 285 285 285 285 285 285 285 284 285 285 285 286 285 285 284 285 285 285 285 286 286 286 286 286 286 286 286 287 289 295 299 302 305 308 311 312 315 315 316 317 317 317 319 319 320 320 320 320 319 319 320 322 321 320 318 318 319 319 319 320 321 322 322 323 324 324 323 323 325 326 327 328 328 328 329
289 288 288 287 286 285 284 284 284 284 285 285 285 285 285 284 284 284 284 285 285 285 285 284 284 284 284 285 285 285 285 285 285 286 286 286 286 286 287 291 294 298 301 304 308 311 312 313 314 314 314 315 317 318 318 319 319 318 318 318 319 319 318 317 316 317 317 318 318 318 320 321 322 322 322 323 324 324 325 326 327 328 328 329 330
289 289 290 286 286 285 284 285 284 285 284 284 285 284 284 285 285 285 284 284 284 284 285 284 284 284 284 285 285 285 285 285 285 285 286 285 285 286 286 288 288 294 297 300 304 308 311 312 312 311 312 314 314 316 316 317 318 317 317 318 318 318 317 316 316 316 316 317 318 318 319 320 320 321 320 321 321 322 323 323 324 325 327 329 330
289 288 288 287 286 285 284 284 283 284 285 285 284 283 284 284 284 285 288 284 283 283 283 284 283 283 284 284 283 284 284 285 285 285 285 285 285 285 286 286 287 289 291 295 299 303 307 309 309 308 309 311 313 314 315 316 315 314 314 315 316 318 317 316 316 315 316 316 316 317 318 319 319 319 318 318 318 319 320 321 322 323 324 325 327
289 289 287 287 286 285 284 283 284 284 284 283 283 282 283 284 284 283 282 283 283 285 283 283 283 284 284 284 284 285 284 284 284 284 285 285 285 285 286 286 287 289 289 288 293 298 303 305 306 306 307 309 312 313 314 314 313 313 313 313 315 315 315 315 315 315 316 315 315 315 316 317 317 317 316 316 317 318 319 320 321 323 324 325 325
289 288 287 286 286 286 284 284 284 284 284 283 283 283 283 284 284 282 282 283 283 282 282 282 283 284 283 283 283 286 283 283 284 285 285 284 285 285 285 286 287 288 290 287 288 292 298 300 302 302 304 306 308 311 312 312 311 312 313 313 314 314 314 314 314 315 315 314 313 313 314 315 315 315 315 315 316 317 319 319 319 320 320 321 322
288 288 288 286 286 286 284 284 284 283 283 282 283 284 283 284 283 284 281 281 282 282 282 282 283 283 283 282 283 284 283 283 285 285 285 284 284 285 285 285 288 290 286 287 287 287 292 296 298 299 299 302 304 307 308 309 310 312 313 313 313 313 313 313 313 314 312 312 312 312 312 313 314 314 314 315 316 317 317 317 317 317 318 319 320
288 288 287 287 286 285 284 283 284 283 282 282 282 282 282 282 282 281 281 282 281 281 282 282 283 283 283 282 282 282 283 283 286 287 284 284 285 284 284 284 285 285 285 286 286 286 287 290 293 293 294 298 302 304 306 306 308 311 312 312 312 312 312 312 311 311 311 311 312 312 313 313 313 314 314 315 315 315 315 316 316 316 317 318 319
288 288 287 287 285 285 284 283 284 282 282 282 282 282 282 281 281 281 282 281 282 281 282 282 282 282 283 282 282 282 282 285 284 284 283 284 287 286 285 284 284 284 285 285 285 285 285 285 285 285 286 295 299 302 303 303 304 308 310 311 311 311 311 312 311 311 311 311 311 312 312 312 313 313 313 314 315 315 315 315 316 316 316 317 317
288 287 287 287 285 285 284 283 283 283 282 282 282 282 282 281 281 282 282 283 282 281 281 281 281 280 283 281 282 282 284 284 283 283 284 283 284 283 284 284 284 284 284 284 284 284 285 285 286 284 285 289 295 297 298 299 300 304 307 309 311 312 311 311 311 310 310 310 311 311 311 312 312 313 313 314 314 314 314 315 315 316 316 317 317
288 287 286 287 285 284 284 283 283 283 282 283 282 282 282 281 283 283 281 280 280 280 281 281 280 280 279 280 282 282 285 283 281 282 283 283 283 283 283 283 283 283 283 284 284 284 284 284 284 284 285 284 286 291 294 295 295 301 304 305 310 312 311 311 311 310 311 311 311 311 312 312 312 312 312 312 312 313 313 314 314 314 314 315 316
288 287 287 286 285 284 284 283 283 283 282 282 281 284 283 282 282 279 280 279 280 280 281 279 279 278 279 280 280 280 283 281 281 282 282 283 283 282 283 283 283 283 283 283 283 283 283 283 283 284 284 284 285 285 285 287 289 297 301 304 308 309 311 311 312 309 309 310 310 310 310 310 310 310 311 311 312 312 313 313 314 314 315 315 315
287 287 286 286 285 285 284 284 283 283 283 281 282 282 282 282 281 281 280 280 281 281 280 279 279 278 279 278 277 278 283 279 280 281 281 282 281 282 283 282 282 282 283 283 282 282 283 283 283 283 283 283 284 284 285 287 290 292 296 300 305 306 309 309 309 308 308 307 308 308 308 308 309 309 310 310 311 312 313 313 313 314 314 315 315
287 287 287 286 285 285 284 283 283 283 283 282 282 282 281 281 281 281 282 280 278 280 281 279 279 279 279 278 276 278 279 278 277 279 279 280 281 282 282 281 281 282 282 282 282 282 282 283 282 282 283 283 283 283 284 285 288 290 291 294 299 302 304 306 307 307 307 307 308 308 307 308 308 309 310 310 310 311 311 311 312 313 313 314 315
287 287 287 286 285 285 284 284 283 283 283 282 282 283 282 282 282 281 280 281 279 278 280 280 279 281 280 277 276 279 277 277 277 277 278 280 280 280 282 280 281 281 281 281 281 281 282 282 282 282 282 282 282 283 283 283 284 287 287 292 296 298 300 303 305 306 306 305 306 307 306 307 307 307 308 308 309 309 310 310 311 311 312 312 313
287 287 287 286 285 285 284 284 283 283 283 282 282 281 281 281 281 281 279 279 280 279 278 281 280 280 279 277 278 278 277 275 276 278 277 279 279 280 279 279 279 280 281 280 280 281 283 282 281 282 281 281 282 282 283 283 285 283 285 291 295 296 297 299 301 303 304 304 304 305 305 306 306 306 306 307 307 308 308 309 310 310 310 311 311
286 286 286 286 285 285 284 284 283 283 283 282 281 282 282 282 282 280 280 281 280 279 280 279 279 279 279 279 281 279 278 277 275 277 276 277 277 278 279 278 279 279 280 280 280 280 281 281 281 281 281 281 282 282 282 283 286 288 292 293 294 294 295 295 297 299 301 302 302 303 304 304 304 305 305 305 306 307 308 308 309 309 310 310 310
286 286 286 286 285 284 284 283 283 282 283 282 282 282 281 281 282 280 280 281 280 281 279 279 279 279 280 279 280 279 278 277 277 276 275 275 276 277 277 278 280 279 280 279 280 280 280 280 280 281 281 282 282 282 282 282 283 285 288 291 292 293 294 295 295 295 296 298 300 301 302 303 304 304 304 304 305 305 306 307 308 309 309 310 310
286 286 285 285 285 284 283 283 283 282 283 282 281 281 281 281 281 280 280 280 279 279 280 279 279 279 278 277 278 277 277 277 277 278 276 274 275 275 275 277 277 278 278 279 279 280 280 280 281 282 282 282 281 281 282 283 284 284 289 291 291 292 292 293 293 294 295 295 296 298 299 300 301 301 302 303 303 304 305 306 306 307 308 309 310
285 285 285 285 284 284 283 283 283 282 283 282 281 280 280 281 281 281 281 280 279 280 279 279 279 279 279 279 277 276 277 277 276 276 276 276 276 275 275 275 275 276 278 278 279 279 280 280 280 280 281 281 281 281 282 283 284 285 287 289 289 290 291 292 293 293 294 294 294 294 295 296 298 300 301 302 303 303 304 305 305 306 306 307 308
284 284 284 284 284 284 283 283 283 283 283 281 281 281 281 281 281 280 281 280 279 279 281 279 278 279 278 279 279 279 277 276 276 276 276 275 275 275 276 276 275 275 276 278 280 279 279 279 279 280 281 280 282 282 281 282 286 287 287 287 287 288 290 291 291 292 292 292 293 293 293 293 294 296 299 300 301 303 304 304 304 304 305 305 306
284 283 283 283 284 283 283 282 282 282 282 282 281 281 281 280 280 280 280 280 279 280 279 278 278 279 278 278 278 278 278 277 278 278 277 276 276 275 275 275 275 276 277 277 278 278 278 278 279 280 280 281 281 281 282 281 283 287 285 285 286 287 288 289 290 290 291 291 291 291 292 293 293 294 295 297 299 301 302 302 303 303 304 305 305
283 283 283 283 284 283 282 282 282 282 282 281 281 281 280 280 280 280 280 280 280 279 279 278 279 279 278 277 277 278 277 278 279 278 277 277 276 274 275 276 274 275 276 276 276 277 278 278 279 279 280 281 281 281 281 281 281 284 285 283 284 285 286 286 288 289 290 290 290 290 290 291 292 292 293 295 296 297 299 301 302 303 304 304 304
284 284 284 284 284 284 283 283 282 282 282 282 281 280 280 280 280 280 279 280 279 279 279 278 278 278 278 278 277 277 277 278 278 278 277 277 275 275 275 275 275 274 276 275 276 276 277 278 279 280 279 279 279 279 279 280 279 283 283 281 281 282 283 285 287 288 289 289 289 289 289 289 290 291 293 294 295 295 296 297 300 301 302 302 303
285 285 285 284 284 283 283 282 282 281 282 281 281 280 280 280 280 280 279 279 279 279 278 278 278 278 278 278 278 277 277 277 278 278 278 278 277 276 275 274 273 274 274 275 275 276 275 277 278 278 279 279 278 278 279 278 280 283 281 278 278 280 281 283 286 287 288 288 288 288 288 288 289 290 291 292 293 294 294 296 297 298 299 300 300
286 285 284 284 283 283 283 282 282 281 281 281 281 280 280 279 279 279 279 279 279 278 278 278 278 278 278 277 278 277 277 277 277 277 277 277 277 277 276 275 274 272 274 273 274 274 277 276 277 278 278 277 278 278 279 278 278 281 280 277 276 277 279 283 285 286 287 287 288 288 288 289 289 290 290 291 291 292 293 294 294 296 296 296 297
285 285 284 283 283 283 282 282 281 281 281 281 280 280 280 280 279 279 278 278 278 278 278 278 278 277 277 277 278 277 277 277 277 277 277 277 277 277 277 276 275 274 271 272 274 274 275 276 276 277 277 277 276 277 276 276 278 279 277 276 276 275 279 283 284 285 286 286 287 287 288 288 289 289 290 290 291 291 292 292 292 293 293 294 294
284 284 284 283 283 283 282 281 281 280 280 280 280 280 279 279 279 279 279 278 278 278 278 278 277 277 277 277 277 277 277 277 277 277 277 277 277 277 277 276 277 274 274 273 273 275 275 276 277 277 276 275 276 276 276 275 279 278 276 276 275 275 281 282 283 284 285 285 286 287 287 288 288 289 289 289 290 291 292 292 292 292 293 293 295
284 283 283 283 283 282 282 281 280 280 280 280 280 279 279 279 279 278 278 278 278 277 277 277 277 277 277 277 277 277 277 277 277 277 277 277 277 277 277 277 277 276 275 274 272 275 277 276 276 276 274 275 275 275 275 275 277 278 276 275 275 278 280 279 280 282 283 284 285 286 287 287 288 289 289 289 289 290 291 291 291 291 292 292 294
284 283 283 283 283 282 282 281 280 280 279 279 279 279 279 279 278 278 278 278 277 277 277 277 277 277 277 277 277 277 277 276 276 277 277 277 277 277 277 277 276 276 276 275 274 274 276 275 275 276 274 274 275 274 274 275 276 278 275 275 275 278 276 275 278 281 282 283 285 285 286 287 288 288 289 289 289 290 290 290 290 291 291 292 293
283 283 283 283 282 282 282 281 280 280 279 279 279 279 279 278 278 278 277 277 277 277 277 276 277 277 277 276 276 276 277 276 276 276 276 276 276 276 276 276 276 276 275 275 273 273 275 276 275 275 274 274 273 273 273 273 273 274 276 275 275 274 275 275 275 278 281 283 284 285 286 287 288 288 288 288 288 289 289 289 289 290 291 292 292
283 283 283 282 282 282 281 281 280 280 280 279 279 279 279 278 278 278 277 277 277 276 276 276 276 277 276 276 276 276 276 276 276 275 275 275 275 275 275 275 275 275 276 274 274 273 272 274 273 274 272 274 272 274 272 272 273 274 273 274 275 275 275 275 274 275 280 282 283 285 286 287 287 287 287 287 288 288 288 289 288 289 290 290 290
283 283 283 282 282 282 281 281 280 280 280 279 279 279 279 278 278 277 277 277 277 276 276 276 276 276 276 276 275 275 275 275 275 275 275 274 274 274 274 274 274 274 274 274 273 271 272 271 273 272 272 272 272 272 273 273 273 274 273 273 274 275 276 275 275 275 279 282 284 285 286 286 286 286 287 287 287 287 288 288 288 289 289 290 290
282 283 283 282 282 282 281 281 281 280 280 279 279 279 279 278 278 278 277 277 277 277 277 277 276 276 276 275 275 275 275 274 273 273 273 274 273 273 273 273 273 272 272 272 272 271 271 269 270 270 272 271 271 272 273 273 273 273 273 274 274 274 274 276 275 275 278 282 284 284 284 285 285 285 286 286 286 287 287 288 288 288 288 288 289
282 282 282 282 282 281 281 281 281 281 280 280 279 278 279 279 278 278 277 277 277 277 277 277 278 276 276 276 275 274 274 274 272 272 272 272 272 271 271 271 271 271 271 271 270 271 269 268 269 271 271 271 272 272 273 272 273 273 274 273 274 274 274 275 276 277 280 282 282 282 282 283 284 284 285 285 286 286 287 287 287 287 287 287 288
282 283 282 282 282 281 281 281 281 281 281 280 279 279 278 278 278 278 277 277 277 277 277 277 277 276 276 276 275 274 274 274 272 272 271 271 270 270 270 270 270 271 270 270 270 269 269 269 269 268 271 270 271 271 272 273 272 272 273 273 274 274 274 274 275 277 278 278 277 278 280 281 282 283 284 284 285 286 286 286 286 286 286 286 286
282 282 282 282 282 282 282 282 281 281 281 280 280 279 279 278 278 277 277 277 277 277 277 276 276 276 276 276 274 274 274 274 272 271 271 270 270 269 269 269 269 269 269 269 269 269 269 268 269 269 269 271 271 270 273 273 273 273 272 272 272 274 275 274 275 276 277 277 279 281 280 280 282 281 282 283 284 285 285 285 285 285 285 284 285
283 282 282 282 282 282 282 282 282 281 281 280 280 279 279 278 278 278 277 277 277 277 276 276 276 276 275 275 274 274 274 274 272 271 271 270 269 268 268 268 268 268 268 269 269 269 268 269 269 269 270 270 271 272 274 273 272 272 274 273 271 272 274 275 275 275 276 276 276 276 279 279 279 280 282 282 282 283 284 283 283 282 282 283 284
283 282 282 282 282 282 282 282 282 281 280 280 280 279 278 278 278 277 277 277 277 276 276 275 275 275 275 274 274 273 274 275 276 274 274 273 269 268 268 268 268 268 267 267 267 268 267 268 268 271 270 271 272 272 272 272 272 272 273 273 273 273 274 274 275 276 276 275 276 276 276 277 277 277 277 277 277 280 280 281 281 281 282 283 284
282 282 281 282 282 282 282 281 281 281 280 280 281 283 282 279 278 278 277 277 277 276 275 274 274 274 274 274 274 276 276 277 277 277 277 276 275 271 269 268 268 267 266 265 266 267 268 268 268 270 270 271 272 272 272 273 273 273 273 273 272 273 274 274 275 275 277 276 276 275 276 278 277 276 277 276 277 278 278 278 278 280 282 284 285
281 281 281 281 282 282 281 281 280 280 280 280 283 284 284 284 279 278 277 276 276 276 275 274 274 273 273 273 273 276 276 277 276 278 278 278 277 275 275 273 272 268 266 267 267 269 268 268 270 271 271 271 273 274 273 273 273 273 273 274 274 274 273 272 271 274 278 277 276 275 274 277 276 275 275 276 277 277 277 277 281 283 284 285 286
281 281 281 281 281 281 281 281 280 280 280 282 284 285 285 285 282 279 278 277 276 276 275 275 274 274 273 272 273 274 275 275 275 276 277 278 278 277 276 276 275 275 274 271 270 270 270 269 270 271 272 272 273 274 273 273 273 274 275 274 274 274 273 272 273 272 276 277 274 272 271 274 275 274 274 275 276 277 277 280 282 282 284 284 285
280 280 280 280 280 281 281 280 280 280 280 283 285 285 286 286 285 281 278 277 276 276 275 275 274 273 272 272 272 273 274 277 275 274 275 276 278 278 277 277 277 278 278 278 277 274 274 272 271 273 274 274 273 273 273 274 276 274 274 274 275 274 274 274 274 274 274 275 272 270 269 271 273 272 272 274 274 275 275 278 280 282 283 284 284
280 280 280 280 280 280 280 280 280 280 280 283 285 286 286 286 285 282 277 277 276 276 275 274 273 273 273 272 272 272 273 274 273 273 274 275 276 275 275 275 275 277 279 279 279 278 277 275 275 274 275 274 273 274 275 276 275 274 274 274 275 274 274 273 273 272 273 273 270 269 268 270 272 271 270 272 274 274 274 277 281 282 283 284 284
280 280 280 280 280 280 280 280 280 280 279 283 285 286 286 286 286 283 277 277 276 275 274 274 274 273 273 273 272 272 272 273 273 273 273 274 275 275 275 275 276 276 276 276 276 275 275 275 275 274 274 275 275 276 276 277 276 276 277 276 275 274 273 272 271 271 270 272 271 270 265 268 271 270 270 271 273 273 274 277 280 281 282 283 283
280 280 280 280 280 280 280 280 280 279 279 283 285 286 286 287 286 280 276 276 275 275 274 273 273 273 273 273 272 272 272 273 276 278 276 274 273 272 271 271 271 272 272 275 276 277 276 276 275 275 275 276 278 277 278 279 278 278 277 275 273 270 267 265 265 267 267 271 271 269 266 267 270 270 270 272 273 272 273 274 278 280 281 282 282
279 279 279 280 280 280 280 279 279 279 278 282 285 286 286 286 285 278 276 275 274 274 273 274 273 273 273 273 273 272 272 272 277 279 278 276 270 269 269 268 268 268 270 274 277 278 279 279 279 280 280 281 281 280 280 280 278 277 273 270 267 264 263 263 264 265 266 269 269 270 268 266 269 270 269 270 271 272 272 273 274 277 278 279 280
278 278 279 279 279 279 279 279 279 278 277 280 284 285 286 286 284 276 275 274 274 273 272 273 273 273 273 275 274 273 272 272 278 280 279 275 270 269 269 268 268 269 271 273 274 276 278 279 279 279 278 278 278 278 277 276 276 276 269 266 265 264 263 262 262 264 266 267 268 271 267 267 269 270 269 270 271 271 272 272 272 273 276 276 278
278 278 278 278 277 278 278 278 280 279 277 279 284 285 286 287 283 275 275 274 273 272 272 272 273 273 274 275 276 274 273 274 280 281 281 276 270 270 270 270 269 270 272 274 273 272 273 273 273 274 274 274 272 270 271 274 274 272 270 268 266 263 262 263 263 264 263 265 269 271 266 267 268 269 269 266 264 268 271 271 271 271 272 272 273
Wind_Speed
7 6 5 5 4 4 4 3 3 3 4 5 4 5 5 4 4 3 3 3 2 3 2 3 3 3 3 4 4 4 4 5 5 5 4 5 5 7 13 13 13 13 13 13 13 13 13 12 11 11 12 11 11 11 11 11 10 10 12 12 12 12 12 12 11 12 13 13 13 13 13 13 13 13 12 12 12 13 13 14 14 14 15 16 16
7 6 7 6 5 4 3 3 4 3 4 5 3 5 5 3 3 3 4 3 2 2 3 3 3 3 3 4 4 4 3 4 4 5 3 5 5 5 11 12 13 13 14 14 14 13 13 13 12 12 11 11 11 11 11 10 10 10 12 12 12 12 13 13 14 14 14 14 14 14 14 14 14 13 12 12 11 11 12 13 14 14 14 14 15
7 7 6 6 5 5 4 3 4 4 4 4 2 3 3 3 4 4 4 4 3 2 3 4 3 4 3 4 4 4 4 4 3 3 4 4 4 4 5 11 12 13 14 14 14 14 14 13 13 12 12 12 10 10 10 11 10 10 12 13 12 12 13 14 14 15 15 15 14 14 14 14 13 13 14 15 13 11 12 13 13 13 13 13 13
8 7 7 6 6 5 4 4 4 4 3 4 3 2 3 2 2 2 2 3 3 2 2 5 5 4 3 4 3 4 4 3 3 3 3 3 3 4 5 5 10 12 13 14 14 14 14 15 14 14 13 12 10 10 11 11 12 11 12 12 12 12 13 15 15 15 15 15 15 14 14 14 14 14 14 15 15 14 14 15 15 14 14 14 14
7 8 7 6 6 5 4 3 4 5 3 3 3 3 3 3 2 2 2 2 2 3 2 4 5 4 4 4 3 4 3 3 3 3 3 3 4 4 4 4 4 8 12 14 15 15 15 15 16 15 15 14 13 12 12 12 12 12 13 13 13 13 14 14 15 15 15 16 16 15 14 14 14 15 16 16 16 15 15 15 15 15 16 16 17
8 7 7 7 6 6 5 4 4 3 3 3 4 3 3 3 3 2 2 2 4 3 3 5 4 3 5 3 3 3 3 3 3 3 3 4 3 4 5 5 5 5 6 11 14 15 15 16 16 17 16 16 15 14 13 13 13 14 14 14 14 14 14 15 15 15 15 15 16 16 15 14 14 15 16 17 16 16 16 16 16 16 15 15 16
8 9 8 7 7 6 5 5 4 4 4 3 4 3 3 4 3 4 3 4 4 3 4 4 3 5 4 3 3 2 3 3 2 3 4 3 4 4 5 5 5 6 6 6 8 13 15 16 16 17 17 16 15 14 14 14 14 15 15 14 14 14 15 15 15 15 15 15 16 16 15 15 15 16 16 16 16 16 16 16 17 17 17 16 16
8 8 8 7 7 7 6 5 5 5 5 4 3 4 3 3 1 3 5 2 3 3 3 3 2 3 2 3 2 2 3 2 3 3 3 3 5 5 5 5 6 6 6 6 6 7 14 14 15 16 17 16 16 15 15 15 15 15 15 15 15 15 15 16 15 15 15 16 16 16 16 15 15 15 16 15 15 16 16 16 17 18 18 18 18
8 8 8 8 7 7 6 6 5 5 5 4 3 3 4 3 1 0 1 4 3 3 2 2 2 2 2 3 2 2 3 3 2 3 3 6 5 5 5 5 4 6 6 6 6 6 9 13 13 14 15 16 16 16 16 17 16 16 16 16 16 15 15 15 15 15 15 15 15 15 14 15 15 15 15 15 15 15 16 16 17 17 17 17 18
9 8 8 8 7 7 6 6 6 6 5 4 4 3 3 3 4 2 2 4 4 3 2 1 1 3 3 3 3 3 2 3 2 3 5 5 5 5 4 4 5 5 6 6 6 6 6 8 12 13 14 16 17 17 18 18 18 18 17 17 16 15 14 14 14 15 15 15 15 15 15 15 15 15 16 16 16 16 16 16 17 17 17 17 17
9 9 9 8 8 7 7 7 6 6 6 5 5 4 3 2 4 4 2 3 4 3 1 0 2 3 4 4 3 3 2 2 3 5 5 4 4 3 3 5 5 5 6 6 6 6 7 7 7 7 8 16 17 19 19 20 19 19 17 16 15 14 14 14 14 15 15 15 15 16 16 16 16 16 16 16 17 17 17 17 18 18 17 17 17
10 9 8 8 8 8 8 7 7 7 7 7 7 7 7 6 5 6 6 3 3 1 1 1 3 5 4 4 4 3 3 3 4 4 3 4 4 3 5 4 6 6 7 6 7 7 7 7 6 7 6 10 16 17 18 19 19 18 17 16 15 14 14 14 15 15 15 15 16 16 16 16 16 16 16 17 17 17 17 18 18 19 19 18 18
9 9 9 9 8 8 8 7 7 7 7 8 6 6 5 5 6 3 4 3 2 2 0 1 4 2 3 5 5 4 3 2 4 5 4 3 4 6 5 7 6 7 6 6 7 7 6 7 6 6 6 6 8 12 15 16 16 18 18 17 16 15 15 15 16 16 17 17 17 17 17 17 17 18 18 17 17 18 18 18 19 19 18 18 18
9 9 9 10 9 9 9 10 9 8 7 5 5 5 5 6 6 4 1 3 2 0 1 2 4 2 3 1 4 3 2 3 4 5 4 3 4 6 6 7 7 6 5 6 6 6 6 6 6 6 6 6 6 6 7 8 10 18 17 17 17 17 17 17 18 18 19 19 19 19 19 19 19 19 19 19 19 19 19 19 19 19 19 18 18
10 10 10 10 10 10 9 9 9 8 8 8 7 8 8 9 8 7 5 1 2 0 1 0 6 3 2 4 1 1 0 1 2 3 4 2 3 5 4 6 7 5 5 6 6 6 5 5 5 6 6 6 6 6 6 7 9 15 17 18 18 18 18 19 19 19 19 19 19 19 19 20 20 20 20 20 20 20 20 19 19 18 19 18 18
10 10 9 10 11 11 9 9 10 9 9 9 10 10 9 8 7 5 7 5 2 0 1 1 4 8 2 2 2 1 0 1 2 3 1 2 3 4 3 4 5 6 5 6 6 5 5 5 5 5 4 4 5 5 6 5 9 11 13 13 15 17 18 18 19 19 20 20 20 20 20 21 21 21 21 21 21 21 21 20 20 19 19 19 19
12 13 12 12 11 10 11 10 10 10 9 9 10 11 11 9 9 7 8 9 6 2 0 2 1 2 7 5 3 0 3 2 1 1 2 1 2 2 2 3 5 6 5 4 3 4 5 5 5 4 4 4 3 4 4 4 5 5 7 9 13 16 18 18 18 19 20 20 21 20 21 21 21 22 22 22 22 22 22 21 21 20 20 20 20
12 12 11 11 12 11 11 11 10 9 9 9 7 5 7 9 10 8 7 4 8 6 3 0 0 1 0 1 3 4 5 3 2 2 1 1 0 0 1 3 4 5 4 3 4 4 5 5 4 4 4 3 3 3 3 3 3 4 5 6 15 15 17 17 17 18 19 20 20 20 20 20 20 20 21 21 22 22 22 21 20 20 20 19 19
11 11 11 11 11 10 11 11 10 9 8 7 8 10 9 9 6 6 6 6 7 6 10 6 3 3 3 3 5 4 5 7 4 2 1 2 1 0 2 3 3 3 3 2 3 4 5 3 4 4 4 3 3 3 3 3 4 5 8 13 15 16 16 16 16 17 18 18 19 19 19 19 20 20 21 22 22 23 23 23 22 22 22 21 19
12 11 11 11 11 10 10 9 9 8 8 9 9 8 6 4 5 4 3 5 7 10 8 9 9 4 2 4 5 5 5 6 3 5 4 3 2 3 1 4 5 3 1 1 2 4 6 5 4 3 3 3 2 3 3 3 4 5 5 14 15 15 15 15 16 16 15 16 17 17 17 19 20 21 22 22 23 23 23 23 23 23 23 23 22
10 11 11 11 10 11 10 10 9 9 9 8 7 6 8 8 8 7 7 6 4 4 9 9 6 8 7 3 5 5 5 4 3 3 4 3 5 3 4 3 3 3 2 1 1 3 4 4 3 2 2 2 2 3 4 4 4 3 6 14 15 16 16 15 15 15 14 14 15 16 16 17 18 19 20 20 20 21 21 21 22 23 23 24 23
9 9 10 10 11 10 10 11 11 10 9 9 7 7 7 7 9 8 7 7 4 6 8 7 5 7 7 9 6 4 5 2 1 3 2 1 3 3 2 2 3 3 1 1 3 5 4 3 3 1 1 1 3 4 4 3 2 3 8 16 15 15 15 15 14 14 14 14 15 15 16 17 18 19 19 19 19 19 19 19 20 20 21 22 23
9 9 10 10 10 10 10 10 9 9 9 9 10 9 9 8 8 5 6 8 7 6 4 5 6 7 7 9 10 11 10 7 9 6 5 3 3 2 4 2 3 6 1 2 4 5 4 3 2 1 0 3 4 4 4 3 4 8 12 13 14 14 14 13 13 14 14 15 15 16 17 17 18 19 19 19 19 19 19 20 20 20 21 21 21
8 9 10 11 11 10 10 10 11 11 11 10 9 9 8 7 7 7 7 5 5 6 6 7 7 7 6 6 7 5 5 6 8 9 9 6 7 6 6 2 3 5 4 0 3 4 3 3 2 2 2 5 4 3 3 3 5 13 8 12 13 13 13 13 14 14 14 14 15 15 16 17 17 18 18 19 19 19 19 20 20 20 20 21 21
11 12 12 15 13 12 13 13 12 12 12 11 10 10 9 8 8 8 7 8 9 9 9 9 10 10 10 5 5 5 5 4 7 8 4 6 6 5 3 3 5 2 2 0 1 2 3 2 1 3 5 4 3 4 3 5 4 9 10 6 12 11 13 14 14 14 14 14 15 15 15 16 17 17 18 19 19 19 19 20 20 21 21 21 21
15 16 15 15 14 15 14 14 13 12 12 12 11 10 10 9 9 9 9 8 6 7 7 7 6 5 5 7 6 6 5 6 7 8 8 8 5 6 6 4 3 4 3 1 3 1 2 2 0 5 5 4 3 3 4 4 3 8 10 5 6 11 12 14 14 14 14 15 15 16 16 16 17 18 18 19 19 19 20 20 21 21 21 22 22
14 13 13 15 14 12 13 13 13 13 12 11 10 10 9 8 7 8 6 6 7 7 6 8 8 7 6 6 7 5 6 6 7 7 7 7 7 7 8 5 2 3 3 3 2 4 2 1 3 3 3 4 3 4 4 3 4 9 8 3 3 9 11 13 13 14 14 15 16 16 17 17 17 18 19 19 20 20 20 21 21 21 22 22 23
10 10 11 13 13 13 12 12 11 11 11 12 11 10 10 10 8 7 8 5 8 8 7 7 7 8 7 6 6 6 5 6 5 6 6 5 5 5 5 4 4 4 1 1 3 3 3 3 1 1 3 3 2 1 2 3 3 9 6 3 3 4 11 13 14 15 15 15 16 17 17 18 18 19 19 19 20 20 21 21 22 22 23 23 23
9 9 11 11 11 11 12 11 11 11 11 11 11 10 10 10 9 9 9 7 7 9 7 8 6 7 6 8 7 7 6 5 5 5 5 4 4 4 5 6 5 3 0 3 3 5 4 3 5 4 3 4 2 2 1 1 4 6 2 3 3 3 9 14 15 15 15 17 18 18 18 18 19 20 21 21 21 21 21 22 22 23 23 23 24
9 10 11 12 12 12 11 11 10 11 11 10 10 10 10 9 9 9 7 7 7 5 6 7 7 7 6 6 6 7 6 6 6 5 5 5 6 5 5 2 4 5 4 4 6 4 4 2 1 2 2 2 1 2 3 3 9 9 4 5 5 6 15 17 17 17 17 18 18 18 19 19 19 20 21 21 21 22 22 23 24 24 24 25 26
11 11 12 12 13 13 12 12 11 11 10 11 10 10 10 10 9 9 8 8 8 8 7 7 7 7 8 8 6 6 6 6 6 6 5 6 6 6 5 4 3 3 5 4 1 3 3 1 2 4 4 4 6 6 7 7 10 12 8 7 5 12 16 12 16 18 18 20 20 20 20 20 20 20 21 21 22 23 23 24 25 25 25 26 26
11 12 13 14 14 14 12 12 12 11 12 11 11 11 10 10 10 9 9 10 9 9 8 6 6 7 8 9 8 7 7 6 6 6 6 6 6 6 6 6 4 3 4 4 5 7 3 2 2 3 6 5 6 7 6 6 7 12 9 8 9 14 9 7 13 17 18 19 19 19 19 19 20 20 21 22 23 24 23 24 25 26 26 27 27
10 12 12 13 14 14 14 14 14 14 14 13 11 11 11 11 10 10 10 11 11 8 8 8 6 8 8 8 8 7 8 8 7 7 7 7 6 6 6 6 6 6 6 6 6 8 5 3 2 3 5 6 5 2 5 4 6 7 7 6 6 7 7 7 7 13 18 19 20 20 20 19 20 21 22 22 22 23 23 24 24 25 26 27 28
12 13 13 12 13 14 14 14 14 14 14 14 14 13 14 13 12 10 11 12 11 10 10 10 9 8 9 10 9 8 9 9 9 9 8 8 8 7 7 7 7 7 6 7 6 5 9 2 2 3 4 4 5 5 6 7 7 7 9 7 6 6 7 6 6 6 15 17 19 19 20 21 21 21 22 22 22 23 23 23 24 24 25 26 26
12 13 14 13 14 14 14 14 15 15 16 15 14 14 14 16 16 13 13 14 14 14 13 13 12 10 10 10 10 9 8 9 9 8 8 8 7 8 7 6 7 6 6 5 5 7 8 7 0 1 1 2 4 8 7 6 7 7 8 8 8 7 6 7 7 6 11 16 18 18 19 20 21 21 22 22 22 23 23 23 24 25 26 26 26
14 13 14 15 14 15 15 15 16 16 15 15 15 15 16 16 15 16 14 14 14 14 14 13 13 13 13 12 11 11 10 10 9 9 8 8 8 7 7 6 6 6 5 5 6 5 3 5 2 3 3 2 5 7 7 6 7 6 6 8 7 8 8 6 6 6 8 16 17 18 19 19 19 20 21 22 22 22 23 24 25 26 26 26 26
14 13 14 15 16 16 17 18 18 17 17 16 16 15 14 14 15 15 15 14 14 14 14 14 13 14 14 14 13 12 12 11 9 9 9 10 8 8 8 7 7 6 5 6 4 5 4 6 4 3 4 5 6 7 7 6 6 6 7 7 7 7 6 5 5 6 11 15 16 17 17 17 18 19 20 20 22 23 24 25 26 26 26 27 26
13 14 15 14 16 18 18 17 17 17 16 16 17 17 17 15 14 14 14 14 14 14 14 13 14 13 14 14 13 14 14 14 13 10 10 11 9 8 8 8 7 6 7 6 6 5 5 5 5 4 5 5 5 5 6 7 7 7 5 5 3 4 5 6 4 5 4 4 4 6 8 11 12 18 19 20 23 24 25 27 27 27 28 28 28
13 13 13 14 13 15 17 16 17 18 17 17 16 16 16 16 16 16 16 16 15 14 13 14 13 13 13 12 13 14 14 13 13 13 12 11 10 10 9 9 8 7 7 6 6 6 6 5 5 5 5 5 4 5 6 6 6 5 7 7 6 5 5 6 9 6 5 6 6 11 11 12 15 13 17 22 24 26 27 27 26 27 27 28 29
14 15 15 16 14 13 14 15 16 15 15 15 15 16 16 17 17 17 17 17 17 15 14 13 13 13 13 12 12 13 13 12 12 11 13 12 9 9 8 8 8 8 6 5 5 5 5 5 5 5 5 5 5 5 5 2 2 2 2 7 11 10 8 6 7 10 7 6 6 4 6 9 9 13 18 18 20 22 25 25 25 26 28 28 29
12 13 12 12 12 14 13 14 14 13 15 16 16 16 17 17 16 17 17 17 16 16 15 14 13 12 12 11 10 11 11 12 14 12 12 12 11 11 8 8 8 7 6 4 4 4 3 4 4 5 4 4 4 5 6 5 6 8 7 7 8 8 10 10 6 6 6 8 7 5 6 7 9 8 8 8 7 15 16 21 19 23 24 26 27
12 11 11 12 13 14 15 14 14 13 14 13 14 22 20 17 17 14 13 14 15 15 15 14 13 12 12 11 10 16 17 17 17 18 18 17 14 10 11 10 9 8 7 7 6 5 5 5 5 3 3 4 5 5 5 3 4 5 7 7 9 10 11 11 6 2 6 6 9 11 6 6 10 10 7 8 7 9 10 10 10 15 22 27 28
13 12 12 14 15 14 14 14 15 14 13 12 18 23 25 24 17 15 15 14 14 14 14 15 15 14 12 12 10 14 16 16 15 20 18 18 17 16 17 16 13 11 10 8 7 7 6 5 4 3 3 4 4 4 4 4 4 5 7 8 10 11 12 14 16 11 0 11 11 10 13 7 9 11 8 8 10 9 9 10 19 25 28 28 29
11 10 13 15 13 12 12 14 15 14 13 13 21 23 24 24 20 15 14 13 14 14 14 14 13 14 14 10 9 10 10 12 11 13 16 20 18 17 18 18 18 18 15 10 9 8 7 5 4 4 3 3 4 4 3 4 7 8 9 10 11 12 13 12 11 14 11 12 16 13 14 5 8 9 9 7 8 9 10 19 26 28 29 29 30
10 13 14 12 13 13 12 14 14 13 11 15 23 26 26 27 26 19 12 13 14 14 14 14 14 10 8 8 8 8 9 19 13 10 10 13 17 19 17 18 18 18 17 17 14 9 7 6 5 4 4 5 4 2 2 6 8 9 10 9 10 11 11 11 11 13 13 12 13 13 14 9 8 11 10 9 11 13 13 17 25 28 29 29 30
11 12 11 14 12 13 14 13 12 11 12 15 23 24 24 25 25 20 12 14 13 14 14 15 12 10 11 10 11 9 9 12 10 11 10 11 12 12 13 12 11 15 18 18 17 17 12 7 4 4 2 0 3 5 6 6 7 7 7 7 9 10 8 8 11 12 12 8 10 12 16 8 7 12 14 11 11 11 10 17 27 27 30 30 30
12 13 14 14 14 14 13 13 12 12 12 17 23 25 25 25 26 20 12 11 10 10 9 8 8 8 10 8 8 8 11 12 11 14 12 12 11 10 10 10 8 8 8 7 5 2 2 0 0 1 3 5 6 7 5 5 6 5 6 9 7 8 9 10 11 9 9 4 6 7 12 12 7 12 14 12 13 11 5 14 23 27 31 31 29
8 8 9 10 12 13 13 13 14 14 11 20 23 25 26 24 25 13 11 11 11 10 11 8 6 7 8 10 10 12 10 9 17 23 17 11 10 10 10 8 6 4 4 5 7 7 5 4 4 5 5 7 10 8 6 5 5 5 5 5 6 6 7 9 11 8 8 4 3 7 11 13 7 10 15 10 10 15 13 11 20 26 26 28 30
8 10 10 11 11 12 14 14 15 13 10 18 24 25 25 28 22 10 11 10 10 11 11 13 9 9 9 10 9 8 10 9 19 23 23 20 10 11 10 9 7 5 5 5 10 12 12 11 11 12 13 13 11 12 12 11 6 6 6 7 6 3 6 10 12 8 8 6 5 5 8 13 7 8 15 16 11 13 13 11 8 18 27 28 30
9 9 8 9 9 10 12 13 14 12 11 16 25 26 29 30 20 13 12 11 11 10 9 6 7 7 10 20 14 10 11 11 23 23 23 18 12 12 10 10 9 8 7 7 6 7 11 10 7 6 7 10 12 8 5 6 8 8 3 7 5 3 6 4 9 10 11 8 8 4 4 9 11 11 13 15 15 9 9 11 10 13 22 25 32
7 6 7 8 8 8 10 11 11 13 10 14 24 26 28 30 20 12 12 11 11 10 11 7 6 7 10 14 19 15 13 16 25 24 24 17 11 11 11 10 10 10 9 9 7 6 4 3 1 4 4 2 1 1 2 8 9 7 3 5 4 3 5 5 6 9 12 6 3 6 9 11 12 13 11 13 17 11 4 8 11 10 12 14 16
Wind_Direction
159 161 144 151 144 143 148 140 127 116 104 80 99 105 93 96 99 105 96 102 105 107 103 82 70 60 67 53 42 33 27 23 20 13 12 9 4 359 8 12 14 19 20 20 23 27 31 30 32 29 31 29 30 30 29 30 32 33 31 30 28 29 31 32 28 29 29 26 25 24 22 20 14 8 1 357 356 355 358 358 356 355 355 355 356
158 156 156 157 152 144 136 142 126 109 97 100 89 105 120 107 108 120 124 132 129 143 126 115 88 73 65 62 45 34 26 24 18 16 9 12 7 3 9 13 15 19 19 19 24 28 32 33 34 32 29 25 26 26 26 28 27 31 31 30 28 29 34 33 31 30 28 26 25 23 20 19 16 12 8 360 353 352 351 352 352 349 349 350 349
157 159 157 152 154 152 151 141 117 97 97 107 88 116 121 141 154 152 150 147 148 154 143 114 97 71 56 60 46 38 30 18 19 13 20 13 12 13 8 16 19 20 20 20 23 25 27 33 38 34 27 23 19 23 23 27 24 31 27 28 29 34 35 33 28 26 24 24 22 20 18 17 15 11 13 12 6 5 5 360 357 353 351 348 346
159 159 159 156 158 157 153 143 133 111 103 116 116 106 123 126 122 126 145 146 136 107 99 97 76 68 57 56 42 44 33 18 20 16 14 19 20 23 19 20 20 24 23 20 21 23 24 30 31 28 30 26 25 26 26 26 25 24 22 26 27 33 35 30 26 24 23 23 21 19 16 15 14 13 11 10 12 17 14 12 10 5 3 360 354
166 161 157 155 153 154 156 152 139 128 112 123 119 111 108 116 123 127 128 147 106 61 65 69 64 42 54 50 46 38 29 27 20 20 18 16 23 23 32 31 27 28 27 28 23 23 27 30 33 32 29 24 19 20 22 24 27 26 26 26 26 27 27 26 23 22 22 22 20 18 16 15 15 15 12 9 7 6 5 4 4 6 8 6 5
158 157 151 153 156 161 162 154 140 131 123 126 137 144 140 137 153 123 101 89 79 46 57 48 31 48 55 46 53 34 25 35 22 15 14 29 14 33 36 41 41 40 37 31 29 25 27 30 33 29 26 21 18 17 21 22 23 26 24 21 22 21 22 21 19 18 20 21 19 17 16 15 16 14 10 5 3 2 2 2 1 360 -0 1 1
164 156 158 157 161 164 167 159 138 132 138 156 146 149 148 153 149 114 90 75 78 60 68 70 41 33 30 41 44 31 36 40 15 29 35 24 29 34 36 41 44 50 45 41 32 26 30 30 32 28 23 20 15 18 20 19 18 19 20 18 17 18 19 17 15 15 18 19 15 13 13 12 13 10 7 3 1 1 1 2 3 1 359 358 356
165 160 156 165 167 169 164 142 145 138 148 153 149 156 158 141 140 150 116 94 95 57 45 61 41 45 35 47 46 54 54 40 34 42 36 49 44 38 34 40 44 47 47 45 44 30 31 32 31 27 22 18 16 18 17 16 15 15 19 18 17 17 17 15 14 15 18 14 10 9 8 9 8 8 6 3 1 2 3 4 3 1 359 357 357
168 166 159 164 164 161 153 148 146 149 154 162 164 163 159 148 114 95 151 141 113 115 59 49 28 48 52 55 43 60 61 49 43 65 65 63 52 45 44 41 43 46 42 44 40 37 29 31 30 27 21 16 16 16 17 15 15 16 19 18 18 18 17 18 16 16 14 11 9 8 8 7 7 7 5 3 2 2 3 2 1 358 356 355 354
169 168 163 161 157 154 145 149 150 150 155 162 171 160 156 157 126 55 110 120 116 108 86 21 46 47 55 50 21 47 57 66 64 68 75 72 64 61 59 58 54 44 45 43 38 34 33 24 24 24 19 14 16 16 17 18 17 16 18 17 17 18 17 18 17 15 14 13 13 10 9 9 8 6 3 0 0 1 0 358 357 356 354 352 352
171 168 161 158 153 152 154 159 153 154 157 163 162 168 162 158 141 108 77 85 118 115 107 6 52 51 59 40 35 27 28 78 60 70 68 77 74 74 79 54 58 47 44 41 35 33 28 24 20 17 10 9 13 15 17 18 16 15 18 17 17 19 19 19 19 18 15 15 13 11 9 9 7 4 0 359 359 359 358 355 354 353 352 351 350
171 167 160 157 157 160 158 158 159 157 166 172 180 181 176 156 157 136 122 90 56 73 31 83 78 65 70 51 50 44 59 67 55 51 63 61 71 84 70 63 53 44 42 34 34 29 25 19 21 13 10 5 8 11 13 15 11 14 18 17 16 20 21 20 21 19 16 15 13 11 8 6 5 3 360 358 358 356 355 354 352 350 349 348 348
167 164 164 157 158 154 155 164 163 168 177 190 180 177 178 168 152 139 131 108 54 5 12 114 113 68 26 57 50 35 46 68 44 32 32 42 61 66 66 61 45 44 32 37 33 26 22 18 16 13 11 5 2 4 7 9 5 11 16 17 16 19 22 21 23 20 18 16 13 12 10 8 6 4 0 357 354 352 351 350 347 345 343 342 342
167 167 163 163 160 165 168 171 170 177 180 167 169 177 173 172 164 103 31 131 130 258 273 129 32 125 126 2 11 5 57 61 42 12 2 22 52 70 69 70 56 44 39 41 31 25 21 18 16 15 6 7 4 1 2 5 0 5 10 14 13 19 21 22 20 19 15 12 9 7 4 2 360 357 355 353 350 349 348 346 344 342 340 339 337
168 170 167 172 169 165 175 168 174 167 165 176 178 184 187 184 187 154 122 49 124 180 8 185 140 135 121 87 9 40 329 6 3 24 355 11 16 62 71 77 71 56 55 50 30 19 13 15 14 10 5 4 2 2 1 1 357 0 5 11 11 18 17 15 14 13 10 8 5 3 1 360 357 355 353 351 348 346 344 342 340 339 338 336 335
171 172 174 174 172 175 167 171 176 176 176 176 183 188 186 193 193 193 149 129 151 75 37 355 133 142 65 105 180 114 31 301 331 292 323 351 28 46 60 76 70 55 48 48 27 11 5 7 10 5 1 1 -0 1 3 359 357 360 358 355 7 19 15 11 10 10 8 7 4 2 0 358 356 353 350 348 345 343 341 338 337 335 334 334 334
176 181 177 177 176 173 172 176 174 179 176 183 188 193 190 190 183 176 187 149 171 155 65 37 60 274 142 111 70 64 211 216 55 293 3 22 355 356 82 75 60 54 49 46 27 17 1 2 359 356 353 360 3 6 2 4 356 360 354 339 16 18 15 10 7 6 4 2 359 356 355 352 350 347 345 342 341 338 335 333 331 330 329 329 328
180 179 179 174 178 178 175 172 178 177 184 190 187 176 191 190 195 186 179 195 144 149 125 88 102 48 353 132 160 169 181 217 131 197 320 222 286 151 82 88 63 53 45 48 15 9 7 353 354 345 345 357 5 4 14 357 2 354 347 357 26 18 11 6 2 360 358 356 355 354 352 351 349 347 344 343 341 337 334 331 329 327 325 323 323
178 178 180 180 177 177 178 178 177 178 178 175 187 197 193 196 178 191 188 153 140 136 156 163 103 27 30 47 60 53 116 129 198 93 306 295 356 337 42 23 35 34 34 62 13 10 348 353 346 338 340 -0 11 10 13 14 10 12 359 26 17 11 5 4 2 358 356 355 353 352 351 350 348 346 344 342 339 336 334 331 329 328 325 324 321
174 180 180 179 177 177 176 174 174 178 174 189 196 194 185 192 196 200 174 181 167 149 159 169 156 158 74 73 68 65 51 69 100 157 152 163 264 327 26 12 359 357 78 112 41 11 334 333 340 337 344 9 21 25 32 32 36 20 14 18 13 8 7 3 360 356 353 352 351 349 349 347 345 342 340 337 335 333 330 329 328 326 325 324 322
177 177 179 178 178 177 173 173 175 178 183 187 193 184 189 181 182 183 188 191 186 156 146 180 164 155 135 72 80 59 53 49 64 76 127 129 270 272 287 337 351 356 71 3 22 336 305 296 301 318 338 7 18 55 59 59 42 37 13 20 12 5 359 355 353 353 352 352 349 347 344 342 338 335 333 331 329 328 326 325 323 322 322 321 321
179 178 177 182 178 173 175 179 181 178 181 185 177 181 190 194 194 190 182 177 174 167 168 165 166 153 159 148 132 112 67 41 37 95 58 92 172 234 277 348 332 279 307 0 330 309 295 289 296 312 4 26 63 80 80 58 42 35 24 17 4 356 353 351 352 352 352 349 347 344 339 335 332 329 329 328 327 326 325 324 322 321 319 317 316
176 180 182 178 178 177 179 181 178 177 179 176 185 187 192 192 190 185 189 180 174 164 136 151 148 158 163 166 164 168 169 170 180 181 154 145 109 253 281 258 216 307 259 143 319 292 283 287 264 295 58 92 94 94 78 57 34 32 29 10 359 353 352 352 351 350 348 343 341 337 334 332 330 329 327 327 326 324 322 321 321 319 318 315 314
177 180 184 181 179 181 180 177 179 180 186 183 182 184 184 182 181 189 190 186 156 156 152 157 167 168 179 183 179 168 148 151 169 165 168 175 152 156 182 257 287 226 258 311 275 263 265 268 246 160 141 106 100 94 84 68 36 24 24 8 356 353 351 349 345 341 338 336 334 334 333 332 331 330 329 327 325 324 322 320 318 317 316 314 313
190 188 192 183 181 180 182 183 185 188 183 180 184 177 177 181 184 187 187 183 180 171 170 178 172 175 182 180 160 167 162 136 141 150 135 128 139 132 202 179 218 279 272 189 263 245 237 223 182 158 124 110 93 78 70 55 33 16 16 10 353 349 346 340 335 335 335 334 334 335 334 331 330 329 327 326 326 325 323 321 320 318 317 316 315
187 195 189 183 188 190 184 186 187 182 183 183 178 177 175 180 181 184 189 188 169 175 173 165 173 166 146 158 171 165 149 152 146 143 150 138 153 168 151 204 207 242 256 216 249 74 245 233 107 114 120 115 107 92 79 53 44 13 12 10 347 343 340 332 331 333 332 332 332 332 331 330 328 327 326 326 325 324 324 322 320 320 320 318 317
193 193 178 186 189 184 188 187 183 182 178 178 178 175 175 173 180 186 179 174 176 166 166 166 168 165 166 165 157 152 159 159 152 158 158 170 160 165 154 153 233 212 249 232 217 224 204 310 79 120 94 86 57 61 55 49 10 7 9 5 341 336 330 324 323 327 326 328 329 330 329 327 326 326 327 326 325 325 324 321 321 320 319 318 315
190 179 184 182 186 187 185 189 182 180 182 179 175 174 173 173 176 176 180 174 171 174 172 170 171 168 164 153 150 164 161 160 156 151 158 153 146 147 152 149 170 273 260 168 178 247 192 178 17 144 119 113 102 105 68 50 352 2 0 341 334 311 316 318 324 325 326 327 328 328 326 326 327 328 327 327 326 324 323 323 322 321 320 317 316
179 174 175 184 185 185 185 185 182 181 179 181 177 174 172 176 177 176 180 175 173 179 166 174 170 163 162 168 164 158 164 154 148 147 145 139 148 158 174 172 160 137 207 326 251 162 211 198 154 189 157 143 155 172 136 118 355 356 328 322 306 284 303 321 324 323 324 326 327 326 326 325 325 329 328 329 328 326 324 323 323 321 319 317 314
171 178 175 178 182 183 183 184 182 180 182 178 177 175 170 179 178 180 175 164 169 163 172 166 166 164 159 159 158 159 162 159 158 149 148 151 154 168 180 176 157 158 170 179 266 194 191 208 141 187 176 85 29 3 33 6 349 348 332 327 324 310 321 327 326 326 327 327 325 324 324 325 324 328 329 328 328 326 325 324 324 322 319 317 317
176 172 174 178 181 183 182 181 178 181 179 179 175 175 176 175 175 174 166 167 171 175 175 169 167 163 164 167 163 160 161 157 148 150 151 152 160 161 166 160 181 144 149 127 244 283 144 190 23 54 21 4 9 1 0 356 343 336 329 321 314 313 319 314 317 321 324 325 325 323 323 323 323 324 326 326 326 325 324 323 322 321 319 317 315
182 176 179 180 181 180 182 179 178 178 178 179 177 177 176 182 173 173 172 169 176 176 172 173 164 170 166 171 174 165 160 152 155 159 161 161 158 164 167 168 176 167 146 172 198 258 104 111 18 18 31 357 359 6 351 334 328 319 315 314 308 313 310 304 309 314 317 319 320 319 319 321 321 322 323 323 323 323 323 322 322 322 320 319 318
178 182 181 182 181 182 180 182 180 180 179 178 179 175 179 179 177 175 168 175 178 175 166 170 170 169 174 174 174 169 160 161 164 161 165 164 161 164 164 166 173 175 172 173 202 261 296 76 26 354 7 6 338 40 321 305 305 297 292 286 287 287 293 293 299 304 309 315 318 317 317 318 320 320 321 321 319 319 320 320 320 320 319 318 317
181 184 183 182 183 181 182 184 183 183 183 182 180 178 179 179 178 176 176 177 178 174 171 177 174 176 175 175 176 170 174 167 164 171 168 165 167 161 174 172 176 180 181 173 207 210 269 358 46 44 16 12 304 309 302 310 300 301 300 300 288 278 284 284 285 284 295 306 311 313 315 318 319 319 319 319 318 317 317 317 317 315 315 314 312
186 184 183 182 182 183 184 184 184 186 186 185 183 182 184 182 180 181 180 179 180 178 181 182 178 175 175 180 180 172 170 171 176 173 166 168 165 168 173 174 175 179 180 184 178 216 241 278 208 234 153 245 268 291 294 280 276 277 285 288 291 289 279 276 277 276 287 301 307 311 313 315 316 316 316 315 316 316 315 313 312 312 312 311 309
187 188 183 183 180 185 186 186 188 188 187 187 185 187 186 184 183 183 180 184 186 185 183 180 178 178 181 178 182 176 175 176 177 172 173 165 169 170 169 176 176 174 178 174 197 175 208 234 265 150 204 197 252 264 265 266 265 265 257 268 260 259 258 257 262 266 274 295 307 310 310 311 311 311 311 311 312 311 309 309 310 310 309 307 304
194 187 190 184 184 184 187 189 189 189 189 186 184 186 189 188 186 181 182 184 186 186 185 184 181 181 182 186 178 175 175 177 177 178 173 171 169 166 174 171 173 170 164 175 168 186 189 222 247 241 233 239 244 250 256 266 268 262 260 254 258 259 259 249 252 261 279 294 297 300 304 305 308 308 307 309 308 307 307 308 307 306 306 305 303
194 195 194 192 189 189 190 189 189 189 185 187 189 188 187 186 185 184 182 184 186 186 186 185 183 184 185 185 179 178 180 182 183 176 169 171 165 170 170 174 168 166 162 160 164 179 193 216 221 248 232 242 249 239 243 241 265 279 278 270 270 274 293 300 274 276 278 272 282 279 289 296 295 304 308 309 307 305 305 304 302 302 303 303 302
205 203 199 196 202 196 192 187 189 186 187 189 189 189 188 186 185 184 183 185 186 186 187 185 184 186 187 184 180 182 185 186 176 176 171 169 172 174 174 170 166 164 160 162 170 176 192 207 223 225 237 241 236 265 248 242 254 272 302 319 319 302 300 309 312 301 293 286 278 293 301 306 307 308 307 305 304 304 302 301 301 301 301 299 298
208 205 202 201 197 197 199 195 192 186 185 187 191 191 190 187 186 189 186 185 184 185 183 183 183 186 186 185 184 186 186 184 177 173 170 171 164 169 170 163 164 163 166 162 166 180 192 206 216 226 235 249 238 225 234 249 283 283 310 326 322 327 323 317 308 313 307 292 302 294 293 298 294 296 297 297 298 300 299 300 298 297 297 297 295
209 208 205 200 198 198 197 197 194 190 190 191 190 189 189 190 190 190 189 186 183 181 180 182 182 181 184 183 182 184 185 181 178 172 176 169 163 166 168 163 165 162 160 163 174 182 193 203 228 242 253 284 304 330 343 356 356 336 326 324 313 314 317 315 314 292 283 311 305 297 307 304 303 301 299 295 292 294 292 294 296 297 293 293 298
208 203 199 200 201 201 198 196 193 194 200 198 192 189 187 187 186 186 185 188 185 183 179 177 179 181 180 179 181 182 181 178 176 176 177 177 174 164 162 166 165 161 165 171 185 187 193 205 219 252 287 310 331 337 341 331 324 313 322 328 326 324 322 315 299 318 313 301 320 318 326 336 310 301 295 295 297 294 294 295 291 293 297 300 298
203 199 195 199 203 201 200 197 197 200 200 199 192 191 190 185 181 182 183 186 186 183 182 179 178 178 178 178 174 179 177 177 178 179 180 181 178 173 171 171 171 166 166 177 190 188 193 207 221 235 263 299 324 344 343 329 317 329 330 330 327 327 330 330 325 323 121 340 326 322 310 324 305 304 308 302 300 293 292 292 298 301 301 299 298
201 192 200 204 201 197 199 201 203 203 204 192 188 192 191 188 184 183 183 182 183 185 184 182 180 176 176 165 166 172 174 175 171 181 186 188 183 181 177 178 180 182 183 175 179 188 198 196 205 220 243 282 316 341 330 327 324 327 328 329 326 324 320 318 313 312 326 351 324 316 304 332 308 299 299 302 298 293 299 304 307 306 301 299 298
189 198 204 194 201 199 197 202 206 204 206 195 193 192 192 190 186 180 185 183 183 187 183 183 178 165 138 144 150 171 173 177 173 174 172 182 183 180 180 182 189 197 203 203 199 192 198 197 198 217 267 297 311 317 313 305 309 311 319 318 319 314 310 308 309 312 318 337 316 311 304 325 326 315 306 304 300 302 304 304 299 299 297 296 296
197 201 197 199 197 196 198 200 204 203 204 198 197 196 194 191 187 180 185 183 185 186 182 162 145 157 163 160 163 164 168 175 169 172 171 173 176 179 184 189 198 209 215 219 219 205 199 203 227 249 263 83 289 287 278 282 305 308 309 306 313 312 316 310 310 303 307 333 310 312 302 324 352 315 303 303 294 289 292 293 301 304 302 300 298
199 200 197 198 198 196 195 194 196 201 203 194 196 195 194 191 188 179 180 182 183 182 151 144 156 151 161 158 152 150 162 174 172 174 170 172 172 177 182 188 191 195 203 209 212 208 228 138 149 284 267 251 243 254 275 283 267 262 296 313 330 323 313 309 297 287 291 302 303 311 292 313 342 306 296 302 299 288 265 292 302 304 302 301 299
213 207 209 204 199 198 196 192 197 202 196 191 194 194 192 190 186 177 177 177 178 175 174 159 143 152 153 160 156 166 165 163 176 177 175 166 165 167 171 171 170 178 191 205 217 225 216 211 219 229 238 243 252 253 255 270 302 323 335 337 326 327 331 309 297 307 298 330 324 313 300 302 325 295 297 295 304 303 305 295 303 305 304 304 303
210 208 208 203 202 199 197 197 198 198 187 191 193 192 193 193 189 175 176 177 178 177 166 174 160 162 165 162 160 151 160 162 178 178 176 172 161 171 173 174 176 180 198 205 221 227 232 235 237 241 249 256 280 297 302 309 322 341 346 325 305 349 327 312 301 311 302 329 313 304 289 295 316 318 307 301 298 298 301 298 302 306 305 302 302
215 215 206 205 206 203 202 201 199 193 188 190 193 193 195 193 181 171 173 176 178 174 130 136 147 156 166 173 167 155 161 166 179 177 177 171 169 173 170 172 179 189 198 195 202 216 225 237 251 266 282 285 286 297 335 331 321 322 346 294 294 355 293 276 291 305 307 314 301 288 293 293 314 313 306 299 299 271 279 292 299 301 304 302 298
227 217 208 209 207 203 205 200 191 192 187 189 194 195 194 195 183 164 169 174 172 175 172 156 155 153 171 177 173 167 164 171 179 179 177 170 166 172 172 173 185 194 197 183 184 187 159 108 298 294 308 289 55 69 316 328 324 320 297 271 285 258 263 274 288 311 313 314 146 31 323 303 314 308 321 317 310 291 189 278 300 293 288 291 290